Location: De Har
(53.3413°N, 6.6858°E)
Time: 17:06:46
(UTC+00:00)

KORONAS-FOTON - Pass Details

Date: 22 April 2026
Orbit: 426 x 438 km, 82.4° (Epoch: 9 May)

Event Time Altitude Azimuth Distance (km) Brightness Sun altitude
Exits shadow 01:39:20 73° 214° (SW) 455 3.2 -19.1°
Maximum altitude 01:39:36 83° 280° (W) 440 3.3 -19.1°
Drops below altitude 10° 01:42:58 10° 10° (N) 1,545 7.2 -18.8°
Sets 01:45:01 0° 11° (N) 2,420 8.4 -18.6°
